This is the latest recevied weather packets stored in our database for station/object K8JCL-13. If no packets are shown the sender has not sent any weather packets the latest 10 day(s).
| Time | Temp. | Humidity | Pressure | Rain* | Wind** | Luminosity | Snow |
|---|---|---|---|---|---|---|---|
| 1778002228 | 18.89° C | 77% | 1009.6 hPa | 0 mm | - | 52 W/m² | - |
| 1778001926 | 18.33° C | 78% | 1009.5 hPa | 0 mm | - | 86 W/m² | - |
| 1778001622 | 18.33° C | 79% | 1009.4 hPa | 0 mm | - | 84 W/m² | - |
| 1778001316 | 18.33° C | 78% | 1009.4 hPa | 0 mm | - | 75 W/m² | - |
| 1778001014 | 18.33° C | 77% | 1009.6 hPa | 0 mm | - | 63 W/m² | - |
| 1778000705 | 18.33° C | 76% | 1009.5 hPa | 0 mm | - | 61 W/m² | - |
| 1778000401 | 18.89° C | 79% | 1009.5 hPa | 0 mm | - | 51 W/m² | - |
| 1778000096 | 18.89° C | 79% | 1009.2 hPa | 0 mm | - | 56 W/m² | - |
| 1777999792 | 19.44° C | 81% | 1009.4 hPa | 0 mm | - | 81 W/m² | - |
| 1777999489 | 19.44° C | 80% | 1009.5 hPa | 0 mm | - | 113 W/m² | - |
| 1777999187 | 19.44° C | 77% | 1009.3 hPa | 0 mm | - | 127 W/m² | - |
| 1777998885 | 19.44° C | 78% | 1009.4 hPa | 0 mm | - | 113 W/m² | - |
| 1777998584 | 19.44° C | 78% | 1009.6 hPa | 0 mm | - | 140 W/m² | - |
| 1777998280 | 19.44° C | 79% | 1009.4 hPa | 0 mm | - | 138 W/m² | - |
| 1777997976 | 19.44° C | 79% | 1009.4 hPa | 0 mm | - | 164 W/m² | - |
| 1777997673 | 19.44° C | 78% | 1009.6 hPa | 0 mm | - | 143 W/m² | - |
| 1777997371 | 19.44° C | 78% | 1009.4 hPa | 0 mm | - | 188 W/m² | - |
| 1777997069 | 20° C | 79% | 1009.3 hPa | 0 mm | - | 202 W/m² | - |
| 1777996765 | 20° C | 78% | 1009.3 hPa | 0 mm | - | 205 W/m² | - |
| 1777996462 | 20° C | 80% | 1009.4 hPa | 0 mm | - | 296 W/m² | - |
| 1777996158 | 19.44° C | 80% | 1009.4 hPa | 0 mm | - | 261 W/m² | - |
| 1777995855 | 19.44° C | 80% | 1009.2 hPa | 0 mm | - | 267 W/m² | - |
| 1777995551 | 19.44° C | 81% | 1009.3 hPa | 0 mm | - | 271 W/m² | - |
| 1777995248 | 19.44° C | 79% | 1009.1 hPa | 0 mm | - | 282 W/m² | - |
| 1777994945 | 19.44° C | 80% | 1009.2 hPa | 0 mm | - | 291 W/m² | - |
* Rain latest hour (hover to see other rain measurements)
** Current wind speed in m/s (hover to see current wind gust speed)